sat.trackr.live / text

‹ back to catalog

RASCOM-QAF 1R

NORAD 36831 · 2010-037B

PAYLOAD ACTIVE UNKNOWN

§ Identity

Operator
Country
RASC
Launch date
2010-08-04
Launch site
FRGUI
Launch vehicle
Mass (kg)
RCS (m²)
65.97

Purposes: comms

External: N2YO · Heavens-Above · Gunter

§ Orbital elements

Epoch: 2026-05-25T03:45:24.686208Z

Period
1,436.11 min
Inclination
0.0064°
Eccentricity
0.0006750
Mean motion
1.00270789 rev/d
Perigee alt
35,758.4 km
Apogee alt
35,815.3 km
Semi-major
42,165.0 km
B*
0.0000e+0
RAAN
71.9536°
Arg perigee
353.9936°
Mean anomaly
236.0549°
Rev number
5,807

§ Raw data

RASCOM-QAF 1R1 36831U 10037B   26145.15653572  .00000016  00000+0  00000+0 0  99992 36831   0.0064  71.9536 0006750 353.9936 236.0549  1.00270789 58073

JSON: /api/v1/satellites/36831 · /tle

For live sub-satellite position, see the globe view (requires WebGL).

§ Visibility from observer

Set your observer location to see the next 7 days of passes ≥ 10°. The values pass through the URL so the page stays shareable.

No JS? Fill the form by hand. The geolocation button needs JavaScript.